RYR6827 EPGD-LZIB

Flight info

Callsign RYR6827
Flight time 1h 1m
Altitude 36000
Route IRLUN N133 GRUDA DCT UPKIS/N0426F350 T720 REGLI/N0367F260 DCT MAVOR P10 BERVA
Aircraft B738/M-SDE3FGIJ1LRWY/SB1

Departure

Time 2026-04-27 10:41
Airport Gdańsk Lech Wałęsa Airport (EPGD)

Arrival

Time 2026-04-27 11:42
Airport M. R. Štefánik Airport (LZIB)
Time Latitude Longitude Altitude Speed Heading
2026-04-27 10:14 54.38129 18.46559 459 ft 0 kts 24°
2026-04-27 10:34 54.38111 18.46544 459 ft 4 kts 40°
2026-04-27 10:34 54.38097 18.46510 457 ft 4 kts 87°
2026-04-27 10:35 54.38099 18.46484 457 ft 0 kts 113°
2026-04-27 10:37 54.38092 18.46511 457 ft 5 kts 113°
2026-04-27 10:37 54.38063 18.46601 459 ft 11 kts 144°
2026-04-27 10:37 54.37989 18.46585 458 ft 12 kts 191°
2026-04-27 10:37 54.37923 18.46674 458 ft 15 kts 116°
2026-04-27 10:38 54.37875 18.46867 456 ft 20 kts 112°
2026-04-27 10:38 54.37814 18.47115 457 ft 25 kts 113°
2026-04-27 10:38 54.37741 18.47408 458 ft 28 kts 113°
2026-04-27 10:38 54.37669 18.47701 464 ft 26 kts 113°
2026-04-27 10:39 54.37601 18.47974 467 ft 24 kts 113°
2026-04-27 10:39 54.37538 18.48230 475 ft 23 kts 113°
2026-04-27 10:39 54.37477 18.48476 480 ft 22 kts 113°
2026-04-27 10:39 54.37419 18.48644 487 ft 15 kts 158°
2026-04-27 10:40 54.37325 18.48605 491 ft 14 kts 202°
2026-04-27 10:40 54.37300 18.48463 485 ft 21 kts 289°
2026-04-27 10:40 54.37380 18.48141 471 ft 69 kts 293°
2026-04-27 10:40 54.37796 18.46479 470 ft 151 kts 295°
2026-04-27 10:41 54.38055 18.45347 836 ft 152 kts 295°
2026-04-27 10:41 54.38462 18.43670 1657 ft 156 kts 296°
2026-04-27 10:41 54.38929 18.41811 2075 ft 187 kts 296°
2026-04-27 10:41 54.39656 18.38889 2785 ft 208 kts 295°
2026-04-27 10:42 54.40230 18.36596 3606 ft 210 kts 295°
2026-04-27 10:42 54.40809 18.34279 4527 ft 212 kts 295°
2026-04-27 10:42 54.41200 18.32710 5156 ft 212 kts 295°
2026-04-27 10:42 54.41779 18.30384 6030 ft 214 kts 295°
2026-04-27 10:43 54.42365 18.28019 6860 ft 217 kts 293°
2026-04-27 10:43 54.42496 18.25386 7546 ft 232 kts 260°
2026-04-27 10:43 54.41749 18.22865 8328 ft 246 kts 235°
2026-04-27 10:43 54.40357 18.21030 9053 ft 263 kts 208°
2026-04-27 10:44 54.38529 18.20434 9830 ft 275 kts 180°
2026-04-27 10:44 54.36628 18.21083 10495 ft 286 kts 164°
2026-04-27 10:44 54.34668 18.22257 10729 ft 311 kts 161°
2026-04-27 10:44 54.32568 18.23647 10934 ft 336 kts 160°
2026-04-27 10:45 54.30327 18.25168 11283 ft 354 kts 159°
2026-04-27 10:45 54.28011 18.26744 11918 ft 362 kts 159°
2026-04-27 10:45 54.25655 18.28338 12684 ft 367 kts 160°
2026-04-27 10:45 54.23296 18.29922 13446 ft 371 kts 160°
2026-04-27 10:46 54.20870 18.31541 14184 ft 378 kts 160°
2026-04-27 10:46 54.18400 18.33182 14866 ft 384 kts 160°
2026-04-27 10:46 54.15893 18.34841 15585 ft 389 kts 160°
2026-04-27 10:46 54.13358 18.36515 16369 ft 392 kts 160°
2026-04-27 10:47 54.10800 18.38201 17102 ft 397 kts 160°
2026-04-27 10:47 54.08219 18.39900 17892 ft 399 kts 160°
2026-04-27 10:47 54.05614 18.41611 18632 ft 403 kts 160°
2026-04-27 10:47 54.02981 18.43339 19248 ft 408 kts 160°
2026-04-27 10:48 54.00325 18.45080 19918 ft 411 kts 160°
2026-04-27 10:48 53.97649 18.46831 20593 ft 413 kts 160°
2026-04-27 10:48 53.94956 18.48592 21259 ft 416 kts 160°
2026-04-27 10:48 53.92244 18.50362 21897 ft 420 kts 160°
2026-04-27 10:49 53.89507 18.52146 22528 ft 423 kts 160°
2026-04-27 10:49 53.86750 18.53940 23149 ft 426 kts 160°
2026-04-27 10:49 53.83969 18.55748 23757 ft 430 kts 160°
2026-04-27 10:49 53.81167 18.57568 24250 ft 433 kts 160°
2026-04-27 10:50 53.78348 18.59396 24774 ft 435 kts 160°
2026-04-27 10:50 53.75511 18.61232 25277 ft 438 kts 160°
2026-04-27 10:50 53.72667 18.63140 25762 ft 441 kts 160°
2026-04-27 10:50 53.69735 18.64641 26240 ft 441 kts 172°
2026-04-27 10:51 53.66695 18.65100 26743 ft 438 kts 184°
2026-04-27 10:51 53.63662 18.64682 27229 ft 437 kts 191°
2026-04-27 10:51 53.60636 18.64018 27686 ft 440 kts 191°
2026-04-27 10:51 53.57588 18.63370 28116 ft 444 kts 191°
2026-04-27 10:52 53.54513 18.62724 28517 ft 447 kts 191°
2026-04-27 10:52 53.51420 18.62077 28928 ft 450 kts 191°
2026-04-27 10:52 53.48303 18.61423 29351 ft 452 kts 191°
2026-04-27 10:52 53.45174 18.60766 29770 ft 455 kts 191°
2026-04-27 10:53 53.42025 18.60104 30173 ft 457 kts 191°
2026-04-27 10:53 53.35719 18.58780 30838 ft 462 kts 191°
2026-04-27 10:53 53.32525 18.58110 31195 ft 463 kts 191°
2026-04-27 10:54 53.29331 18.57443 31629 ft 462 kts 191°
2026-04-27 10:54 53.26151 18.56780 32129 ft 459 kts 191°
2026-04-27 10:54 53.22983 18.56120 32555 ft 459 kts 191°
2026-04-27 10:54 53.19818 18.55461 32946 ft 459 kts 191°
2026-04-27 10:55 53.16649 18.54801 33354 ft 458 kts 191°
2026-04-27 10:55 53.13491 18.54145 33777 ft 457 kts 191°
2026-04-27 10:55 53.10339 18.53491 34186 ft 456 kts 191°
2026-04-27 10:55 53.07190 18.52838 34525 ft 456 kts 191°
2026-04-27 10:56 53.04042 18.52186 34792 ft 456 kts 192°
2026-04-27 10:56 53.00886 18.51532 35054 ft 458 kts 192°
2026-04-27 10:56 52.97730 18.50880 35337 ft 458 kts 192°
2026-04-27 10:56 52.94569 18.50229 35665 ft 457 kts 192°
2026-04-27 10:57 52.91417 18.49581 35996 ft 456 kts 192°
2026-04-27 10:57 52.88264 18.48934 36257 ft 457 kts 192°
2026-04-27 10:57 52.85087 18.48280 36230 ft 463 kts 192°
2026-04-27 10:58 52.78689 18.46969 36216 ft 461 kts 192°
2026-04-27 10:58 52.72379 18.45688 36242 ft 455 kts 192°
2026-04-27 10:59 52.66093 18.44409 36257 ft 455 kts 192°
2026-04-27 10:59 52.59798 18.43129 36259 ft 456 kts 192°
2026-04-27 11:00 52.50344 18.41217 36251 ft 457 kts 192°
2026-04-27 11:00 52.44031 18.39945 36260 ft 457 kts 192°
2026-04-27 11:01 52.37758 18.38685 36260 ft 458 kts 192°
2026-04-27 11:01 52.31433 18.37419 36259 ft 458 kts 192°
2026-04-27 11:02 52.25112 18.36157 36259 ft 457 kts 192°
2026-04-27 11:02 52.18790 18.34898 36260 ft 457 kts 192°
2026-04-27 11:03 52.12471 18.33644 36259 ft 458 kts 192°
2026-04-27 11:03 52.06155 18.32393 36265 ft 457 kts 192°
2026-04-27 11:04 51.99841 18.31146 36260 ft 457 kts 192°
2026-04-27 11:04 51.93525 18.29903 36260 ft 457 kts 192°
2026-04-27 11:05 51.87211 18.28664 36263 ft 457 kts 192°
2026-04-27 11:05 51.80899 18.27428 36258 ft 457 kts 192°
2026-04-27 11:06 51.74595 18.26198 36264 ft 456 kts 192°
2026-04-27 11:06 51.68290 18.24970 36265 ft 456 kts 192°
2026-04-27 11:07 51.61990 18.23747 36273 ft 456 kts 192°
2026-04-27 11:07 51.55689 18.22527 36254 ft 456 kts 192°
2026-04-27 11:08 51.49441 18.21322 36262 ft 455 kts 192°
2026-04-27 11:08 51.43152 18.20111 36269 ft 455 kts 191°
2026-04-27 11:09 51.36862 18.18903 36271 ft 455 kts 191°
2026-04-27 11:09 51.30571 18.17699 36261 ft 455 kts 191°
2026-04-27 11:10 51.24283 18.16499 36270 ft 455 kts 191°
2026-04-27 11:10 51.17992 18.15301 36272 ft 455 kts 191°
2026-04-27 11:11 51.11697 18.14105 36272 ft 456 kts 191°
2026-04-27 11:11 51.05401 18.12913 36263 ft 456 kts 191°
2026-04-27 11:12 50.99114 18.11726 36264 ft 456 kts 191°
2026-04-27 11:12 50.92820 18.10541 36268 ft 456 kts 191°
2026-04-27 11:13 50.86548 18.09130 36238 ft 454 kts 194°
2026-04-27 11:13 50.80346 18.07323 36262 ft 453 kts 195°
2026-04-27 11:14 50.74144 18.05494 36261 ft 454 kts 195°
2026-04-27 11:14 50.67932 18.03720 36268 ft 454 kts 195°
2026-04-27 11:15 50.61706 18.01979 36250 ft 454 kts 194°
2026-04-27 11:15 50.55485 18.00251 36258 ft 454 kts 194°
2026-04-27 11:16 50.49269 17.98529 36260 ft 453 kts 194°
2026-04-27 11:16 50.43060 17.96811 36272 ft 453 kts 194°
2026-04-27 11:17 50.39985 17.95961 35913 ft 457 kts 194°
2026-04-27 11:17 50.36857 17.95097 35461 ft 455 kts 194°
2026-04-27 11:17 50.33736 17.94238 34906 ft 456 kts 195°
2026-04-27 11:17 50.30611 17.93379 34359 ft 457 kts 195°
2026-04-27 11:18 50.27475 17.92517 33687 ft 458 kts 195°
2026-04-27 11:18 50.24332 17.91654 33056 ft 459 kts 195°
2026-04-27 11:18 50.21183 17.90791 32415 ft 460 kts 195°
2026-04-27 11:18 50.18032 17.89930 31880 ft 458 kts 195°
2026-04-27 11:19 50.14908 17.89079 31448 ft 454 kts 195°
2026-04-27 11:19 50.11809 17.88236 31018 ft 451 kts 195°
2026-04-27 11:19 50.08728 17.87398 30586 ft 448 kts 195°
2026-04-27 11:19 50.05667 17.86566 30125 ft 445 kts 195°
2026-04-27 11:20 50.02627 17.85740 29621 ft 442 kts 195°
2026-04-27 11:20 49.99623 17.84925 29177 ft 436 kts 195°
2026-04-27 11:20 49.96650 17.84120 28722 ft 433 kts 195°
2026-04-27 11:20 49.93685 17.83316 28254 ft 433 kts 195°
2026-04-27 11:21 49.90705 17.82506 27829 ft 436 kts 195°
2026-04-27 11:21 49.87724 17.81698 27381 ft 434 kts 195°
2026-04-27 11:21 49.84757 17.80899 26929 ft 430 kts 194°
2026-04-27 11:21 49.81821 17.80109 26493 ft 427 kts 194°
2026-04-27 11:22 49.78906 17.79327 26062 ft 423 kts 194°
2026-04-27 11:22 49.76015 17.78551 25626 ft 420 kts 194°
2026-04-27 11:22 49.73147 17.77781 25204 ft 417 kts 194°
2026-04-27 11:22 49.70296 17.77016 24777 ft 414 kts 194°
2026-04-27 11:23 49.67466 17.76258 24353 ft 412 kts 194°
2026-04-27 11:23 49.64654 17.75505 23932 ft 409 kts 194°
2026-04-27 11:23 49.61892 17.74767 23446 ft 407 kts 194°
2026-04-27 11:23 49.59105 17.74023 22989 ft 405 kts 194°
2026-04-27 11:24 49.56338 17.73285 22536 ft 402 kts 194°
2026-04-27 11:24 49.53598 17.72556 22123 ft 398 kts 194°
2026-04-27 11:24 49.50883 17.71836 21693 ft 394 kts 194°
2026-04-27 11:24 49.48194 17.71122 21290 ft 390 kts 193°
2026-04-27 11:25 49.45535 17.70415 20879 ft 386 kts 193°
2026-04-27 11:25 49.42894 17.69715 20471 ft 383 kts 193°
2026-04-27 11:25 49.40273 17.69020 20070 ft 381 kts 193°
2026-04-27 11:25 49.37671 17.68331 19669 ft 379 kts 193°
2026-04-27 11:26 49.35083 17.67647 19269 ft 377 kts 193°
2026-04-27 11:26 49.32507 17.66967 18871 ft 375 kts 193°
2026-04-27 11:26 49.29945 17.66291 18454 ft 373 kts 193°
2026-04-27 11:26 49.27395 17.65619 17989 ft 371 kts 193°
2026-04-27 11:27 49.24862 17.64953 17556 ft 368 kts 193°
2026-04-27 11:27 49.22351 17.64293 17162 ft 365 kts 193°
2026-04-27 11:27 49.19859 17.63638 16767 ft 362 kts 193°
2026-04-27 11:27 49.17387 17.62990 16341 ft 360 kts 193°
2026-04-27 11:28 49.14908 17.62339 15770 ft 363 kts 193°
2026-04-27 11:28 49.12424 17.61688 15317 ft 361 kts 193°
2026-04-27 11:28 49.09959 17.61044 14948 ft 358 kts 193°
2026-04-27 11:28 49.07516 17.60407 14558 ft 355 kts 193°
2026-04-27 11:29 49.05083 17.59772 14147 ft 353 kts 193°
2026-04-27 11:29 49.02667 17.59142 13723 ft 351 kts 193°
2026-04-27 11:29 49.00266 17.58516 13306 ft 349 kts 193°
2026-04-27 11:29 48.97886 17.57897 12907 ft 346 kts 193°
2026-04-27 11:30 48.95523 17.57282 12500 ft 344 kts 193°
2026-04-27 11:30 48.93171 17.56671 12096 ft 342 kts 193°
2026-04-27 11:30 48.90834 17.56064 11699 ft 340 kts 192°
2026-04-27 11:30 48.88511 17.55461 11313 ft 337 kts 192°
2026-04-27 11:31 48.86205 17.54863 10921 ft 335 kts 192°
2026-04-27 11:31 48.83958 17.54282 10770 ft 326 kts 192°
2026-04-27 11:31 48.81758 17.53719 10691 ft 315 kts 192°
2026-04-27 11:31 48.79630 17.53213 10612 ft 304 kts 192°
2026-04-27 11:32 48.77563 17.52742 10462 ft 298 kts 191°
2026-04-27 11:32 48.75522 17.52280 10182 ft 296 kts 191°
2026-04-27 11:32 48.74146 17.51968 9953 ft 296 kts 191°
2026-04-27 11:32 48.71465 17.51357 9562 ft 293 kts 191°
2026-04-27 11:33 48.70105 17.51048 9382 ft 291 kts 191°
2026-04-27 11:33 48.67463 17.50445 8980 ft 289 kts 191°
2026-04-27 11:33 48.66120 17.50137 8782 ft 288 kts 191°
2026-04-27 11:33 48.64170 17.49692 8523 ft 286 kts 191°
2026-04-27 11:34 48.62208 17.49245 8240 ft 284 kts 191°
2026-04-27 11:34 48.60258 17.48801 7959 ft 282 kts 191°
2026-04-27 11:34 48.58319 17.48360 7655 ft 281 kts 191°
2026-04-27 11:34 48.56393 17.47921 7384 ft 279 kts 191°
2026-04-27 11:35 48.54483 17.47485 7103 ft 277 kts 191°
2026-04-27 11:35 48.52582 17.47052 6841 ft 275 kts 191°
2026-04-27 11:35 48.50694 17.46624 6570 ft 274 kts 190°
2026-04-27 11:35 48.48817 17.46197 6271 ft 272 kts 190°
2026-04-27 11:36 48.46949 17.45773 5994 ft 270 kts 190°
2026-04-27 11:36 48.45093 17.45352 5736 ft 269 kts 189°
2026-04-27 11:36 48.43250 17.44935 5446 ft 267 kts 189°
2026-04-27 11:36 48.41417 17.44519 5173 ft 265 kts 189°
2026-04-27 11:37 48.39595 17.44107 4869 ft 265 kts 189°
2026-04-27 11:37 48.37776 17.43695 4572 ft 264 kts 188°
2026-04-27 11:37 48.35991 17.43292 4492 ft 254 kts 188°
2026-04-27 11:37 48.34273 17.42905 4423 ft 244 kts 188°
2026-04-27 11:38 48.32641 17.42537 4367 ft 230 kts 189°
2026-04-27 11:38 48.31147 17.41902 4082 ft 223 kts 213°
2026-04-27 11:38 48.30107 17.40254 3817 ft 215 kts 230°
2026-04-27 11:38 48.29088 17.38653 3515 ft 209 kts 223°
2026-04-27 11:39 48.28044 17.37170 3228 ft 204 kts 223°
2026-04-27 11:39 48.27024 17.35714 2941 ft 201 kts 223°
2026-04-27 11:39 48.26025 17.34276 2667 ft 197 kts 223°
2026-04-27 11:39 48.25048 17.32874 2417 ft 193 kts 223°
2026-04-27 11:40 48.24087 17.31484 2151 ft 191 kts 223°
2026-04-27 11:40 48.23150 17.30131 1897 ft 181 kts 223°
2026-04-27 11:40 48.22271 17.28866 1662 ft 169 kts 223°
2026-04-27 11:40 48.21466 17.27704 1432 ft 154 kts 223°
2026-04-27 11:41 48.20706 17.26609 1220 ft 150 kts 222°
2026-04-27 11:41 48.19972 17.25549 1028 ft 148 kts 222°
2026-04-27 11:41 48.19217 17.24460 823 ft 149 kts 223°
2026-04-27 11:41 48.18478 17.23403 615 ft 149 kts 223°
2026-04-27 11:42 48.17743 17.22334 436 ft 144 kts 223°
2026-04-27 11:42 48.17129 17.21454 426 ft 93 kts 224°
2026-04-27 11:42 48.16809 17.20991 416 ft 41 kts 224°
2026-04-27 11:42 48.16643 17.20755 433 ft 29 kts 224°
2026-04-27 11:43 48.16568 17.20612 432 ft 10 kts 275°
2026-04-27 11:43 48.16605 17.20524 430 ft 10 kts 314°
2026-04-27 11:43 48.16654 17.20450 430 ft 10 kts 313°
2026-04-27 11:43 48.16714 17.20357 427 ft 14 kts 315°
2026-04-27 11:44 48.16788 17.20249 438 ft 16 kts 315°
2026-04-27 11:44 48.16864 17.20156 435 ft 12 kts 355°
2026-04-27 11:44 48.16925 17.20222 439 ft 7 kts 43°
2026-04-27 11:44 48.16967 17.20206 437 ft 7 kts 315°
2026-04-27 11:45 48.16982 17.20182 434 ft 2 kts 314°
2026-04-27 11:45 48.16984 17.20179 434 ft 0 kts 314°